Regional Weather Roundup
Issued by NWS

Home | Current Version | Previous Version | Graphics & Text | Print | Product List | Glossary On
Versions: 1 2 3 4 5 6 7 8 9 10 11 12 13 14 15 16 17 18 19 20 21 22 23 24 25 26 27 28 29 30 31 32 33 34 35 36 37 38 39 40 41 42 43 44 45 46 47 48 49 50
000
ASUS43 KMPX 120701
RWRMN
WEATHER ROUNDUP FOR MINNESOTA
NATIONAL WEATHER SERVICE TWIN CITIES/CHANHASSEN MN
100 AM CST TUE DEC 12 2017


NOTE: "FAIR" INDICATES FEW OR NO CLOUDS BELOW 12,000 FEET WITH NO
SIGNIFICANT WEATHER AND/OR OBSTRUCTIONS TO VISIBILITY. N/A MEANS
CURRENT SKY AND/OR WEATHER CONDITIONS ARE NOT AVAILABLE.

MNZ060>063-068>070-120800-
   Twin Cities Metro

CITY           SKY/WX    TMP DP  RH WIND       PRES   REMARKS
TWIN CITIES    CLEAR     13   8  81 NW14      30.24R WCI  -2
ST PAUL        CLEAR     14   7  73 NW17      30.25R WCI  -3
CRYSTAL        CLEAR     12   3  67 NW15      30.24R WCI  -4
BLAINE         PTCLDY    12   7  79 NW10G18   30.23R WCI  -1
LAKEVILLE      PTCLDY    12   9  85 NW13      30.21S WCI  -3
EDEN PRAIRIE   PTCLDY    14   6  70 NW13G20   30.23S WCI   0
SOUTH ST PAUL  CLEAR     15   8  73 NW13      30.23R WCI   1
LAKE ELMO      FAIR      14   9  79 NW9G17    30.22S WCI   2
$$
MNZ001>005-007-008-013>017-022>024-027-028-120800-
   Northwest Minnesota

CITY           SKY/WX    TMP DP  RH WIND       PRES   REMARKS
BEMIDJI        CLOUDY    -3  -6  85 W5        30.21F WCI -13
HALLOCK        MOCLDY     7   3  85 S5        30.26F WCI  -2
ROSEAU         CLOUDY     0  -6  78 SW5       30.23F WCI -10
WARROAD        CLOUDY    -6  -9  84 SW5       30.22F WCI -17
CROOKSTON      CLOUDY     3   0  85 S3        30.29F
FOSSTON        FLURRIES  -6  -9  84 CALM      30.25S
DETROIT LAKES  CLOUDY     3   1  92 W5        30.25F WCI  -6
MOORHEAD       CLOUDY     7   1  78 CALM      30.32S
PARK RAPIDS    CLOUDY    -4  -8  83 W7        30.21F WCI -18
MAHNOMEN       FAIR      -2  -6  84 SW3       30.25F
$$
MNZ006-009>011-018-025>026-120800-
   North Central Minnesota

CITY           SKY/WX    TMP DP  RH WIND       PRES   REMARKS
BAUDETTE       PTCLDY    -1  -5  82 W3        30.19F
FLAG ISLAND    CLOUDY     0  -2  92 NW5       30.20F WCI -10
INTL FALLS     CLOUDY    -2  -6  83 W6        30.19S WCI -14
WASKISH        PTCLDY     1  -2  85 CALM      30.21F
LONGVILLE      CLOUDY     1   0  92 NW3       30.21F
GRAND RAPIDS   CLOUDY     1  -2  87 NW9       30.20S WCI -14
CRANE LAKE     PTCLDY     3  -2  78 N6        30.19S WCI  -8
ORR            CLOUDY     1  -2  85 NW8       30.13F WCI -12
COOK           CLOUDY     3   0  85 CALM      30.16S FOG
WALKER         FAIR      -1  -4  86 W5        30.21F WCI -11
$$
MNZ012-019>021-037-120800-
   Northeast Minnesota

CITY           SKY/WX    TMP DP  RH WIND       PRES   REMARKS
DULUTH         PTCLDY     5   0  79 NW12G18   30.12R WCI -11
ELY            LGT SNOW   3  -2  78 NW6       30.12R WCI  -8
HIBBING        CLOUDY     3  -1  83 N17       30.15F WCI -17
EVELETH        CLOUDY     5  -2  73 NW9G16    30.14S HAZE    WCI -10
DULUTH HARBOR  PTCLDY    10   3  72 W5        30.22R WCI   2
TWO HARBORS    CLEAR      7   0  72 NW5       30.11S WCI  -2
SILVER BAY     CLEAR      7   0  72 CALM      30.10R
GRAND MARAIS     N/A      8  -3  61 CALM      30.14S
G MARAIS ARPRT CLOUDY     1  -8  66 NW6       30.00S WCI -10
$$
MNZ029>031-032-039>041-046>048-054>057-064-120800-
   West Central Minnesota

CITY           SKY/WX    TMP DP  RH WIND       PRES   REMARKS
FERGUS FALLS   CLOUDY     1   0  92 W6        30.33F WCI -10
WHEATON        CLOUDY     9   3  78 W3        30.35S
MORRIS         CLOUDY     7   3  85 NW7       30.30S WCI  -5
ALEXANDRIA     CLEAR      5   1  83 NW7       30.26R WCI  -7
ELBOW LAKE     FAIR       4   2  89 NW6       30.30S WCI  -6
WADENA         CLEAR      0  -2  92 NW3       30.23F
GLENWOOD       CLEAR      5   1  85 W6        30.27S WCI  -6
APPLETON         N/A     10   7  85 W6        30.33S WCI   1
ORTONVILLE     CLOUDY    12   7  79 NW5       30.33S WCI   4
MADISON        CLEAR     14  10  85 NW6       30.34S WCI   5
WILLMAR        FAIR      10   7  85 NW12      30.30R WCI  -4
$$
MNZ033>034-036-042>043-049>051-058-059-120800-
   Central Minnesota

CITY           SKY/WX    TMP DP  RH WIND       PRES   REMARKS
ST CLOUD       CLOUDY     7   3  84 NW7       30.26R WCI  -5
SAUK CENTRE    FAIR       4   0  81 NW5       30.27S WCI  -5
PAYNESVILLE    CLOUDY     8   4  84 NW7       30.28S WCI  -4
AITKIN         CLEAR      3   0  85 NW6       30.20S WCI  -8
PINE RIVER     CLOUDY     3  -2  78 NW5       30.25S WCI  -6
BRAINERD       CLOUDY     5  -1  76 NW7       30.23S WCI  -7
STAPLES        CLOUDY     0  -4  85 W5        30.23F WCI -10
LONG PRAIRIE   FAIR       3   0  85 W6        30.26S WCI  -8
LITTLE FALLS   CLOUDY     7  -2  66 NW5       30.26S WCI  -2
LITCHFIELD     CLEAR     10   5  79 NW9       30.27R WCI  -2
BUFFALO        CLEAR     10   4  78 NW10      30.26F WCI  -4
MAPLE LAKE     CLEAR     10   6  82 NW8       30.26S WCI  -2
HUTCHINSON     CLEAR     11   5  77 NW13      30.27S WCI  -4
$$
MNZ037-044-045-052-053-120800-
   East Central Minnesota

CITY           SKY/WX    TMP DP  RH WIND       PRES   REMARKS
PRINCETON      PTCLDY     9   3  78 W8        30.24S WCI  -4
MORA           PTCLDY     9   3  78 NW7       30.24R WCI  -3
CAMBRIDGE      CLEAR     10   1  67 W7        30.24S WCI   0
RUSH CITY      CLEAR     10   4  80 NW8       30.22S WCI  -3
MOOSE LAKE     CLEAR      9   1  72 N5        30.18S WCI   0
HINCKLEY       FAIR      10   5  79 NW7       30.21S WCI   0
CLOQUET        CLEAR      7   0  72 NW8       30.15R WCI  -6
MCGREGOR       CLEAR      7   3  85 NW7       30.20S WCI  -5
$$
MNZ071>073-080-081-089-090-097-098-120800-
   Southwest Minnesota

CITY           SKY/WX    TMP DP  RH WIND       PRES   REMARKS
MONTEVIDEO     CLEAR     10   7  85 NW8       30.33S WCI  -1
GRANITE FALLS  CLEAR     12   8  85 W10       30.34S WCI  -1
CANBY          CLEAR     13  10  88 NW6       30.34S WCI   4
MARSHALL       CLEAR     11   8  88 NW9       30.33S WCI  -2
REDWOOD FALLS  CLEAR     13   4  67 NW13      30.30R WCI  -2
OLIVIA         CLEAR     10   7  85 NW10      30.29S WCI  -3
PIPESTONE      CLEAR     12  10  92 N6        30.29F WCI   3
WINDOM           N/A     12   1  62 NW16G24   30.27S WCI  -4
WORTHINGTON    CLEAR     13  10  88 NW13      30.29F WCI  -2
JACKSON        CLEAR     14   9  79 MISG      30.27F
TRACY          CLEAR     14  11  90 NW13      30.30S WCI   0
SLAYTON        CLEAR     13  10  87 NW13      30.30S WCI  -1
$$
MNZ065>067-074>077-082>085-091>093-120800-
   South Central Minnesota

CITY           SKY/WX    TMP DP  RH WIND       PRES   REMARKS
MANKATO        CLEAR     12   7  80 NW12      30.25S WCI  -2
NEW ULM        CLEAR     10   5  79 NW15      30.28S WCI  -6
ST JAMES       CLEAR     12   7  79 W15       30.29R WCI  -4
FAIRMONT       CLEAR     13   6  74 NW18      30.27S WCI  -4
GLENCOE        CLEAR     12   7  78 NW9       30.26S WCI   0
FARIBAULT      PTCLDY    12   9  85 NW10G16   30.21S WCI  -1
OWATONNA       PTCLDY    12   9  85 NW10      30.20S WCI  -1
WASECA         PTCLDY    14  10  85 NW13      30.23S WCI   0
$$
MNZ078>079-086>088-094>096-120800-
   Southeast Minnesota

CITY           SKY/WX    TMP DP  RH WIND       PRES   REMARKS
ROCHESTER      CLEAR     15   9  76 NW15      30.15R WCI   0
RED WING       PTCLDY    16   7  67 NW6       30.20R WCI   7
STANTON        PTCLDY    16  10  75 NW12      30.20S WCI   3
DODGE CENTER   PTCLDY    14  10  85 NW15      30.16S WCI  -1
WINONA         PTCLDY    19  10  68 NW14      30.18R WCI   6
PRESTON        CLEAR     16   8  71 N18G24    30.14S WCI  -1
$$
ABBREVIATIONS USED IN REMARKS
   TC - TEMPERATURES IN CELSIUS
  WCI - WIND CHILL INDEX
   HX - HEAT INDEX
  VSB - VISIBILITY
$$




USA.gov is the U.S. government's official web portal to all federal, state and local government web resources and services.